Terminal Aerodrome Forecast
Issued by NWS Topeka, KS

Home | Current Version | Previous Version | Text Only | Print | Product List | Glossary Off
Versions: 1 2 3 4 5 6 7 8 9 10 11 12 13 14 15 16 17 18 19

074
FTUS43 KTOP 201256 AAA
TAFTOP
TAF AMD
KTOP 201256Z 2013/2112 21010G20KT P6SM OVC012
      TEMPO 2013/2015 6SM BR BKN008
     FM201900 26013G21KT P6SM BKN020
     FM202200 27014G21KT P6SM BKN035
     FM210200 27009KT P6SM SCT040=

USA.gov is the U.S. government's official web portal to all federal, state and local government web resources and services.